Regional Weather Roundup
Issued by NWS

Home | Current Version | Previous Version | Text Only | Print | Product List | Glossary Off
Versions: 1 2 3 4 5 6 7 8 9 10 11 12 13 14 15 16 17 18 19 20 21 22 23 24 25 26 27

000
ASUS45 KCYS 230510
RWRWY

WYOMING REGIONAL WEATHER ROUNDUP
NATIONAL WEATHER SERVICE CHEYENNE WY
1100 PM MDT FRI SEP 22 2017

NOTE:  "FAIR" INDICATES FEW OR NO CLOUDS BELOW 12,000 FEET
WITH NO SIGNIFICANT WEATHER AND/OR OBSTRUCTIONS TO VISIBILITY.

WYZ001-230600-
YELLOWSTONE NATIONAL PARK

CITY           SKY/WX    TMP DP  RH WIND       PRES   REMARKS
LK YELLOWSTONE NOT AVBL
W YELLOWSTONE  NOT AVBL

$$
WYZ002>013-054>058-071-098>099-230600-
NORTHERN WYOMING

CITY           SKY/WX    TMP DP  RH WIND       PRES   REMARKS
JACKSON        CLOUDY    38  34  85 NE3       30.00R
CODY           LGT RAIN  35  34  96 VRB3      30.05S
GREYBULL       LGT RAIN  41  40  96 NW9       30.02R
WORLAND        CLOUDY    41  41 100 N5        30.02S
SHERIDAN       CLOUDY    41  40  96 W7        30.06S
BUFFALO        RAIN      40  36  86 N5        30.06R
GILLETTE       CLOUDY    43  36  76 N12       30.03S
HULETT         MOCLDY    39  37  93 N5        30.04R
NEWCASTLE      FAIR      45  43  93 NW8       29.98R

$$
WYZ014>020-022>026-101>103-230600-
CENTRAL WYOMING

CITY           SKY/WX    TMP DP  RH WIND       PRES   REMARKS
BIG PINEY      CLOUDY    35  34  96 E9        30.02R WCI  28
PINEDALE       CLOUDY    34  32  93 SW3       30.03R
DUBOIS         CLOUDY    34  32  93 NW7       30.00R WCI  28
LANDER           N/A    N/A N/A N/A MISG      29.99R
RIVERTON       LGT RAIN  40  40 100 N7        30.01R FOG
CASPER         CLOUDY    43  39  86 N13       29.99R
DOUGLAS        FAIR      43  41  93 CALM      29.99R

$$
WYZ021-027>030-104>119-230600-
SOUTHERN WYOMING

CITY           SKY/WX    TMP DP  RH WIND       PRES   REMARKS
EVANSTON       CLOUDY    36  31  82 CALM      30.00S
KEMMERER         N/A     36  34  93 CALM      30.01S
FORT BRIDGER   CLOUDY    37  37 100 W6        30.02F WCI  32
ROCK SPRINGS   LGT RAIN  35  33  92 N8        30.01F WCI  29
DIXON          LGT RAIN  48  39  69 NW6       30.01R
RAWLINS        FAIR      42  39  89 NW5       29.95R
SARATOGA       MOCLDY    46  39  76 S7        29.95R
LARAMIE        CLOUDY    44  38  79 SE10      29.99F
CHEYENNE       FAIR      46  36  68 N7        30.01R
TORRINGTON     FAIR      49  38  65 E7        29.96R
PINE BLUFFS    FAIR      50  37  62 N13G20    29.97R

$$




USA.gov is the U.S. government's official web portal to all federal, state and local government web resources and services.